This is the latest recevied weather packets stored in our database for station/object KF5WOE-13. If no packets are shown the sender has not sent any weather packets the latest 1 day(s).
| Time | Temp. | Humidity | Pressure | Rain* | Wind** | Luminosity | Snow |
|---|---|---|---|---|---|---|---|
| 1778005897 | 60° C | - | - | 0 mm | 4.92 m/s, 246° | - | - |
| 1778005593 | 60° C | - | - | 0 mm | 4.02 m/s, 241° | - | - |
| 1778005290 | 60° C | - | - | 0 mm | 3.58 m/s, 231° | - | - |
| 1778004986 | 60° C | - | - | 0 mm | 4.92 m/s, 218° | - | - |
| 1778004684 | 60° C | - | - | 0 mm | 3.58 m/s, 250° | - | - |
| 1778004380 | 60° C | - | - | 0 mm | 1.34 m/s, 209° | - | - |
| 1778004078 | 60° C | - | - | 0 mm | 4.92 m/s, 231° | - | - |
| 1778003773 | 60° C | - | - | 0 mm | 3.13 m/s, 201° | - | - |
| 1778003470 | 60° C | - | - | 0 mm | 2.24 m/s, 222° | - | - |
| 1778003167 | 60° C | - | - | 0 mm | 3.13 m/s, 217° | - | - |
| 1778002862 | 60° C | - | - | 0 mm | 4.92 m/s, 215° | - | - |
| 1778002559 | 60° C | - | - | 0 mm | 4.92 m/s, 208° | - | - |
| 1778002256 | 60° C | - | - | 0 mm | 3.13 m/s, 232° | - | - |
| 1778001954 | 60° C | - | - | 0 mm | 3.13 m/s, 195° | - | - |
| 1778001651 | 60° C | - | - | 0 mm | 4.02 m/s, 213° | - | - |
| 1778001345 | 60° C | - | - | 0 mm | 3.58 m/s, 220° | - | - |
| 1778001042 | 60° C | - | - | 0 mm | 5.36 m/s, 210° | - | - |
| 1778000739 | 60° C | - | - | 0 mm | 3.58 m/s, 203° | - | - |
| 1778000436 | 60° C | - | - | 0 mm | 5.36 m/s, 216° | - | - |
| 1778000131 | 60° C | - | - | 0 mm | 2.24 m/s, 217° | - | - |
| 1777999827 | 60° C | - | - | 0 mm | 2.68 m/s, 197° | - | - |
| 1777999523 | 60° C | - | - | 0 mm | 4.02 m/s, 199° | - | - |
| 1777999221 | 60° C | - | - | 0 mm | 4.02 m/s, 212° | - | - |
| 1777998920 | 60° C | - | - | 0 mm | 4.92 m/s, 199° | - | - |
| 1777998616 | 60° C | - | - | 0 mm | 4.02 m/s, 227° | - | - |
* Rain latest hour (hover to see other rain measurements)
** Current wind speed in m/s (hover to see current wind gust speed)